Time,TemperatureF,DewpointF,PressureIn,WindDirection,WindDirectionDegrees,WindSpeedMPH,WindSpeedGustMPH,Humidity,HourlyPrecipIn,Conditions,Clouds,dailyrainin,SoftwareType,DateUTC
2013-05-13 00:02:00,39.0,31.0,30.11,North,5,0.0,0.0,73,0.00,,,0.00,,2013-05-13 04:02:00,
2013-05-13 00:12:00,39.0,31.0,30.11,North,5,0.0,0.0,73,0.00,,,0.00,,2013-05-13 04:12:00,
2013-05-13 00:23:00,39.0,31.0,30.11,North,5,0.0,0.0,74,0.00,,,0.00,,2013-05-13 04:23:00,
2013-05-13 00:32:00,38.0,32.0,30.11,North,5,0.0,1.0,79,0.00,,,0.00,,2013-05-13 04:32:00,
2013-05-13 00:42:00,38.0,32.0,30.11,North,5,0.0,1.0,79,0.00,,,0.00,,2013-05-13 04:42:00,
2013-05-13 00:52:00,37.0,31.0,30.11,North,5,0.0,1.0,80,0.00,,,0.00,,2013-05-13 04:52:00,
2013-05-13 01:02:00,38.0,32.0,30.11,North,5,0.0,2.0,79,0.00,,,0.00,,2013-05-13 05:02:00,
2013-05-13 01:12:00,38.0,32.0,30.11,North,5,0.0,2.0,79,0.00,,,0.00,,2013-05-13 05:12:00,
2013-05-13 01:22:00,37.0,31.0,30.10,ESE,105,1.0,2.0,80,0.00,,,0.00,,2013-05-13 05:22:00,
2013-05-13 01:32:00,38.0,33.0,30.11,ESE,105,1.0,2.0,81,0.00,,,0.00,,2013-05-13 05:32:00,
2013-05-13 01:42:00,38.0,33.0,30.11,ESE,105,1.0,2.0,81,0.00,,,0.00,,2013-05-13 05:42:00,
2013-05-13 01:52:00,38.0,32.0,30.10,ESE,105,0.0,0.0,78,0.00,,,0.00,,2013-05-13 05:52:00,
2013-05-13 02:01:00,37.0,31.0,30.10,ESE,105,0.0,2.0,80,0.00,,,0.00,,2013-05-13 06:01:00,
2013-05-13 02:11:00,37.0,31.0,30.10,ESE,105,0.0,2.0,80,0.00,,,0.00,,2013-05-13 06:11:00,
2013-05-13 02:21:00,38.0,32.0,30.10,ESE,105,1.0,2.0,79,0.00,,,0.00,,2013-05-13 06:21:00,
2013-05-13 02:32:00,38.0,33.0,30.11,ESE,105,1.0,2.0,81,0.00,,,0.00,,2013-05-13 06:32:00,
2013-05-13 02:42:00,38.0,33.0,30.11,ESE,105,0.0,1.0,81,0.00,,,0.00,,2013-05-13 06:42:00,
2013-05-13 02:52:00,38.0,33.0,30.11,ESE,105,0.0,1.0,81,0.00,,,0.00,,2013-05-13 06:52:00,
2013-05-13 03:01:00,38.0,34.0,30.11,ESE,105,0.0,0.0,84,0.00,,,0.00,,2013-05-13 07:01:00,
2013-05-13 03:11:00,38.0,34.0,30.11,ESE,105,0.0,0.0,84,0.00,,,0.00,,2013-05-13 07:11:00,
2013-05-13 03:22:00,38.0,34.0,30.11,ESE,105,0.0,1.0,85,0.00,,,0.00,,2013-05-13 07:22:00,
2013-05-13 03:32:00,38.0,34.0,30.11,ESE,105,0.0,0.0,85,0.00,,,0.00,,2013-05-13 07:32:00,
2013-05-13 03:42:00,38.0,34.0,30.11,ESE,105,0.0,0.0,84,0.00,,,0.00,,2013-05-13 07:42:00,
2013-05-13 03:52:00,38.0,34.0,30.11,ESE,105,0.0,0.0,84,0.00,,,0.00,,2013-05-13 07:52:00,
2013-05-13 04:02:00,38.0,34.0,30.11,ESE,105,0.0,0.0,86,0.00,,,0.00,,2013-05-13 08:02:00,
2013-05-13 04:11:00,38.0,34.0,30.11,ESE,105,0.0,0.0,86,0.00,,,0.00,,2013-05-13 08:11:00,
2013-05-13 04:21:00,38.0,34.0,30.11,ESE,105,0.0,0.0,86,0.00,,,0.00,,2013-05-13 08:21:00,
2013-05-13 04:32:00,38.0,35.0,30.11,ESE,105,0.0,1.0,88,0.00,,,0.00,,2013-05-13 08:32:00,
2013-05-13 04:42:00,38.0,35.0,30.11,ESE,105,0.0,1.0,88,0.00,,,0.00,,2013-05-13 08:42:00,
2013-05-13 04:52:00,38.0,34.0,30.11,ESE,105,0.0,0.0,86,0.00,,,0.00,,2013-05-13 08:52:00,
2013-05-13 05:01:00,37.0,34.0,30.11,ESE,105,0.0,0.0,87,0.00,,,0.00,,2013-05-13 09:01:00,
2013-05-13 05:11:00,37.0,34.0,30.11,ESE,105,0.0,0.0,87,0.00,,,0.00,,2013-05-13 09:11:00,
2013-05-13 05:21:00,37.0,34.0,30.11,ESE,105,0.0,0.0,87,0.00,,,0.00,,2013-05-13 09:21:00,
2013-05-13 05:33:00,37.0,34.0,30.11,ESE,105,0.0,0.0,88,0.00,,,0.00,,2013-05-13 09:33:00,
2013-05-13 05:42:00,37.0,34.0,30.11,ESE,105,0.0,0.0,88,0.00,,,0.00,,2013-05-13 09:42:00,
2013-05-13 05:52:00,37.0,34.0,30.11,ESE,105,0.0,0.0,88,0.00,,,0.00,,2013-05-13 09:52:00,
2013-05-13 06:03:00,36.0,33.0,30.11,ESE,105,0.0,0.0,89,0.00,,,0.00,,2013-05-13 10:03:00,
2013-05-13 06:12:00,36.0,33.0,30.11,ESE,105,0.0,0.0,89,0.00,,,0.00,,2013-05-13 10:12:00,
2013-05-13 06:22:00,36.0,33.0,30.11,ESE,105,0.0,1.0,90,0.00,,,0.00,,2013-05-13 10:22:00,
2013-05-13 06:32:00,36.0,34.0,30.11,ESE,105,0.0,1.0,91,0.00,,,0.00,,2013-05-13 10:32:00,
2013-05-13 06:42:00,36.0,34.0,30.11,ESE,105,0.0,1.0,91,0.00,,,0.00,,2013-05-13 10:42:00,
2013-05-13 06:52:00,35.0,33.0,30.11,ESE,105,0.0,1.0,91,0.00,,,0.00,,2013-05-13 10:52:00,
2013-05-13 07:02:00,35.0,33.0,30.12,ESE,105,0.0,1.0,92,0.00,,,0.00,,2013-05-13 11:02:00,
2013-05-13 07:12:00,35.0,33.0,30.12,ESE,105,0.0,1.0,92,0.00,,,0.00,,2013-05-13 11:12:00,
2013-05-13 07:22:00,36.0,34.0,30.13,NNE,20,0.0,2.0,92,0.00,,,0.00,,2013-05-13 11:22:00,
2013-05-13 07:32:00,37.0,34.0,30.13,NNE,20,0.0,1.0,87,0.00,,,0.00,,2013-05-13 11:32:00,
2013-05-13 07:42:00,37.0,34.0,30.13,NNE,20,0.0,1.0,87,0.00,,,0.00,,2013-05-13 11:42:00,
2013-05-13 07:52:00,38.0,34.0,30.13,SSE,162,1.0,2.0,86,0.00,,,0.00,,2013-05-13 11:52:00,
2013-05-13 08:01:00,39.0,35.0,30.14,East,96,2.0,3.0,86,0.00,,,0.00,,2013-05-13 12:01:00,
2013-05-13 08:11:00,39.0,35.0,30.14,East,96,2.0,3.0,86,0.00,,,0.00,,2013-05-13 12:11:00,
2013-05-13 08:21:00,40.0,34.0,30.14,ESE,113,2.0,4.0,78,0.00,,,0.00,,2013-05-13 12:21:00,
2013-05-13 08:32:00,41.0,33.0,30.15,ESE,104,2.0,6.0,74,0.00,,,0.00,,2013-05-13 12:32:00,
2013-05-13 08:42:00,41.0,33.0,30.15,ESE,104,2.0,6.0,74,0.00,,,0.00,,2013-05-13 12:42:00,
2013-05-13 08:52:00,43.0,35.0,30.15,East,88,0.0,4.0,73,0.00,,,0.00,,2013-05-13 12:52:00,
2013-05-13 09:01:00,45.0,34.0,30.16,SE,129,3.0,4.0,65,0.00,,,0.00,,2013-05-13 13:01:00,
2013-05-13 09:11:00,45.0,34.0,30.16,SE,129,3.0,4.0,65,0.00,,,0.00,,2013-05-13 13:11:00,
2013-05-13 09:21:00,45.0,29.0,30.16,SE,132,2.0,6.0,53,0.00,,,0.00,,2013-05-13 13:21:00,
2013-05-13 09:32:00,46.0,31.0,30.16,East,89,1.0,5.0,56,0.00,,,0.00,,2013-05-13 13:32:00,
2013-05-13 09:42:00,47.0,29.0,30.16,SE,140,2.0,5.0,49,0.00,,,0.00,,2013-05-13 13:42:00,
2013-05-13 09:52:00,47.0,29.0,30.16,SE,140,2.0,5.0,49,0.00,,,0.00,,2013-05-13 13:52:00,
2013-05-13 10:02:00,48.0,31.0,30.16,South,190,3.0,6.0,51,0.00,,,0.00,,2013-05-13 14:02:00,
2013-05-13 10:11:00,48.0,31.0,30.16,South,190,3.0,6.0,51,0.00,,,0.00,,2013-05-13 14:11:00,
2013-05-13 10:22:00,48.0,29.0,30.17,SSE,161,2.0,6.0,47,0.00,,,0.00,,2013-05-13 14:22:00,
2013-05-13 10:32:00,49.0,30.0,30.17,SSW,209,3.0,5.0,47,0.00,,,0.00,,2013-05-13 14:32:00,
2013-05-13 10:41:00,49.0,30.0,30.17,SSW,209,3.0,5.0,47,0.00,,,0.00,,2013-05-13 14:41:00,
2013-05-13 10:52:00,49.0,31.0,30.17,SE,140,1.0,5.0,50,0.00,,,0.00,,2013-05-13 14:52:00,
2013-05-13 11:01:00,49.0,30.0,30.17,NE,44,1.0,6.0,47,0.00,,,0.00,,2013-05-13 15:01:00,
2013-05-13 11:11:00,49.0,30.0,30.17,NE,44,1.0,6.0,47,0.00,,,0.00,,2013-05-13 15:11:00,
2013-05-13 11:21:00,50.0,32.0,30.17,NNE,13,2.0,6.0,49,0.00,,,0.00,,2013-05-13 15:21:00,
2013-05-13 11:32:00,50.0,31.0,30.17,NNE,16,1.0,5.0,47,0.00,,,0.00,,2013-05-13 15:32:00,
2013-05-13 11:42:00,50.0,31.0,30.17,NNE,16,1.0,5.0,47,0.00,,,0.00,,2013-05-13 15:42:00,
2013-05-13 11:53:00,51.0,31.0,30.17,NW,304,2.0,5.0,46,0.00,,,0.00,,2013-05-13 15:53:00,
2013-05-13 12:03:00,51.0,30.0,30.17,NNW,334,6.0,11.0,45,0.00,,,0.00,,2013-05-13 16:03:00,
2013-05-13 12:12:00,51.0,30.0,30.17,NNW,334,6.0,11.0,45,0.00,,,0.00,,2013-05-13 16:12:00,
2013-05-13 12:21:00,52.0,31.0,30.17,ESE,115,3.0,9.0,44,0.00,,,0.00,,2013-05-13 16:21:00,
2013-05-13 12:33:00,52.0,29.0,30.17,NNW,331,10.0,16.0,41,0.00,,,0.00,,2013-05-13 16:33:00,
2013-05-13 12:42:00,52.0,31.0,30.17,WNW,288,6.0,12.0,44,0.00,,,0.00,,2013-05-13 16:42:00,
2013-05-13 12:53:00,52.0,31.0,30.17,WNW,288,6.0,12.0,44,0.00,,,0.00,,2013-05-13 16:53:00,
2013-05-13 13:02:00,53.0,27.0,30.17,WNW,289,6.0,17.0,37,0.00,,,0.00,,2013-05-13 17:02:00,
2013-05-13 13:12:00,53.0,27.0,30.17,WNW,289,6.0,17.0,37,0.00,,,0.00,,2013-05-13 17:12:00,
2013-05-13 13:21:00,54.0,30.0,30.17,NNW,342,7.0,11.0,40,0.00,,,0.00,,2013-05-13 17:21:00,
2013-05-13 13:32:00,54.0,29.0,30.17,WNW,284,9.0,17.0,38,0.00,,,0.00,,2013-05-13 17:32:00,
2013-05-13 13:42:00,54.0,29.0,30.17,WNW,284,9.0,17.0,38,0.00,,,0.00,,2013-05-13 17:42:00,
2013-05-13 13:54:00,54.0,31.0,30.16,NW,317,7.0,15.0,41,0.00,,,0.00,,2013-05-13 17:54:00,
2013-05-13 14:03:00,54.0,29.0,30.16,West,271,9.0,17.0,38,0.00,,,0.00,,2013-05-13 18:03:00,
2013-05-13 14:13:00,54.0,29.0,30.16,West,271,9.0,17.0,38,0.00,,,0.00,,2013-05-13 18:13:00,
2013-05-13 14:23:00,54.0,28.0,30.16,NW,314,5.0,13.0,36,0.00,,,0.00,,2013-05-13 18:23:00,
2013-05-13 14:32:00,55.0,28.0,30.16,West,263,9.0,15.0,35,0.00,,,0.00,,2013-05-13 18:32:00,
2013-05-13 14:42:00,56.0,29.0,30.15,NNW,333,7.0,13.0,35,0.00,,,0.00,,2013-05-13 18:42:00,
2013-05-13 14:52:00,56.0,29.0,30.15,NNW,333,7.0,13.0,35,0.00,,,0.00,,2013-05-13 18:52:00,
2013-05-13 15:01:00,56.0,29.0,30.15,NNW,332,8.0,15.0,35,0.00,,,0.00,,2013-05-13 19:01:00,
2013-05-13 15:11:00,56.0,29.0,30.15,NNW,332,8.0,15.0,35,0.00,,,0.00,,2013-05-13 19:11:00,
2013-05-13 15:22:00,56.0,27.0,30.15,West,273,6.0,12.0,33,0.00,,,0.00,,2013-05-13 19:22:00,
2013-05-13 15:32:00,57.0,30.0,30.14,NNW,332,6.0,17.0,35,0.00,,,0.00,,2013-05-13 19:32:00,
2013-05-13 15:44:00,56.0,27.0,30.14,WSW,252,3.0,9.0,32,0.00,,,0.00,,2013-05-13 19:44:00,
2013-05-13 15:53:00,56.0,27.0,30.14,WSW,252,3.0,9.0,32,0.00,,,0.00,,2013-05-13 19:53:00,
2013-05-13 16:02:00,57.0,29.0,30.13,West,279,10.0,20.0,34,0.00,,,0.00,,2013-05-13 20:02:00,
2013-05-13 16:11:00,57.0,29.0,30.13,West,279,10.0,20.0,34,0.00,,,0.00,,2013-05-13 20:11:00,
2013-05-13 16:23:00,58.0,31.0,30.13,NNW,338,2.0,13.0,35,0.00,,,0.00,,2013-05-13 20:23:00,
2013-05-13 16:34:00,58.0,26.0,30.12,West,275,4.0,14.0,29,0.00,,,0.00,,2013-05-13 20:34:00,
2013-05-13 16:44:00,58.0,26.0,30.12,West,275,4.0,14.0,29,0.00,,,0.00,,2013-05-13 20:44:00,
2013-05-13 16:53:00,58.0,24.0,30.11,WNW,289,7.0,12.0,27,0.00,,,0.00,,2013-05-13 20:53:00,
2013-05-13 17:03:00,58.0,25.0,30.11,NW,308,5.0,15.0,28,0.00,,,0.00,,2013-05-13 21:03:00,
2013-05-13 17:14:00,58.0,25.0,30.11,NW,308,5.0,15.0,28,0.00,,,0.00,,2013-05-13 21:14:00,
2013-05-13 17:23:00,58.0,23.0,30.11,WNW,296,9.0,13.0,26,0.00,,,0.00,,2013-05-13 21:23:00,
2013-05-13 17:33:00,58.0,25.0,30.11,NNW,345,8.0,18.0,28,0.00,,,0.00,,2013-05-13 21:33:00,
2013-05-13 17:43:00,58.0,25.0,30.11,NNW,345,8.0,18.0,28,0.00,,,0.00,,2013-05-13 21:43:00,
2013-05-13 17:53:00,58.0,23.0,30.11,West,275,8.0,16.0,26,0.00,,,0.00,,2013-05-13 21:53:00,
2013-05-13 18:02:00,58.0,22.0,30.11,West,277,9.0,13.0,25,0.00,,,0.00,,2013-05-13 22:02:00,
2013-05-13 18:12:00,58.0,22.0,30.11,West,277,9.0,13.0,25,0.00,,,0.00,,2013-05-13 22:12:00,
2013-05-13 18:23:00,58.0,23.0,30.11,NW,323,6.0,11.0,26,0.00,,,0.00,,2013-05-13 22:23:00,
2013-05-13 18:32:00,58.0,23.0,30.10,NW,306,5.0,14.0,26,0.00,,,0.00,,2013-05-13 22:32:00,
2013-05-13 18:43:00,58.0,21.0,30.11,NNW,331,3.0,9.0,24,0.00,,,0.00,,2013-05-13 22:43:00,
2013-05-13 18:52:00,58.0,21.0,30.11,NNW,331,3.0,9.0,24,0.00,,,0.00,,2013-05-13 22:52:00,
2013-05-13 19:02:00,58.0,21.0,30.10,NW,323,7.0,12.0,24,0.00,,,0.00,,2013-05-13 23:02:00,
2013-05-13 19:13:00,58.0,21.0,30.10,NW,323,7.0,12.0,24,0.00,,,0.00,,2013-05-13 23:13:00,
2013-05-13 19:23:00,57.0,20.0,30.10,NNE,22,4.0,11.0,23,0.00,,,0.00,,2013-05-13 23:23:00,
2013-05-13 19:33:00,57.0,22.0,30.10,NW,308,2.0,6.0,26,0.00,,,0.00,,2013-05-13 23:33:00,
2013-05-13 19:42:00,57.0,22.0,30.10,NW,308,2.0,6.0,26,0.00,,,0.00,,2013-05-13 23:42:00,
2013-05-13 19:54:00,57.0,22.0,30.10,NE,53,2.0,5.0,26,0.00,,,0.00,,2013-05-13 23:54:00,
2013-05-13 20:02:00,56.0,22.0,30.10,NE,51,1.0,4.0,26,0.00,,,0.00,,2013-05-14 00:02:00,
2013-05-13 20:13:00,56.0,22.0,30.10,NE,51,1.0,4.0,26,0.00,,,0.00,,2013-05-14 00:13:00,
2013-05-13 20:22:00,56.0,24.0,30.10,NE,50,1.0,3.0,29,0.00,,,0.00,,2013-05-14 00:22:00,
2013-05-13 20:32:00,55.0,26.0,30.10,NE,56,0.0,2.0,32,0.00,,,0.00,,2013-05-14 00:32:00,
2013-05-13 20:42:00,55.0,26.0,30.10,NE,56,0.0,2.0,32,0.00,,,0.00,,2013-05-14 00:42:00,
2013-05-13 20:52:00,55.0,26.0,30.10,ENE,57,0.0,1.0,33,0.00,,,0.00,,2013-05-14 00:52:00,
2013-05-13 21:02:00,54.0,28.0,30.10,ENE,57,0.0,1.0,36,0.00,,,0.00,,2013-05-14 01:02:00,
2013-05-13 21:11:00,54.0,28.0,30.10,ENE,57,0.0,1.0,36,0.00,,,0.00,,2013-05-14 01:11:00,
2013-05-13 21:21:00,52.0,28.0,30.10,ENE,70,0.0,2.0,40,0.00,,,0.00,,2013-05-14 01:21:00,
2013-05-13 21:32:00,51.0,29.0,30.10,East,91,0.0,1.0,43,0.00,,,0.00,,2013-05-14 01:32:00,
2013-05-13 21:43:00,51.0,29.0,30.10,East,91,0.0,1.0,43,0.00,,,0.00,,2013-05-14 01:43:00,
2013-05-13 21:53:00,51.0,29.0,30.10,East,98,1.0,3.0,43,0.00,,,0.00,,2013-05-14 01:53:00,
2013-05-13 22:02:00,50.0,28.0,30.10,ESE,117,2.0,3.0,43,0.00,,,0.00,,2013-05-14 02:02:00,
2013-05-13 22:12:00,50.0,30.0,30.10,ESE,113,2.0,3.0,46,0.00,,,0.00,,2013-05-14 02:12:00,
2013-05-13 22:22:00,50.0,30.0,30.10,ESE,113,2.0,3.0,46,0.00,,,0.00,,2013-05-14 02:22:00,
2013-05-13 22:32:00,50.0,30.0,30.10,ESE,113,1.0,3.0,46,0.00,,,0.00,,2013-05-14 02:32:00,
2013-05-13 22:42:00,50.0,30.0,30.10,ESE,113,1.0,3.0,46,0.00,,,0.00,,2013-05-14 02:42:00,
2013-05-13 22:52:00,49.0,29.0,30.10,East,95,2.0,3.0,46,0.00,,,0.00,,2013-05-14 02:52:00,
2013-05-13 23:01:00,50.0,29.0,30.10,ESE,122,2.0,3.0,45,0.00,,,0.00,,2013-05-14 03:01:00,
2013-05-13 23:11:00,50.0,29.0,30.10,ESE,122,2.0,3.0,45,0.00,,,0.00,,2013-05-14 03:11:00,
2013-05-13 23:21:00,50.0,30.0,30.09,ESE,115,1.0,3.0,46,0.00,,,0.00,,2013-05-14 03:21:00,
2013-05-13 23:33:00,50.0,30.0,30.10,SE,124,2.0,4.0,46,0.00,,,0.00,,2013-05-14 03:33:00,
2013-05-13 23:42:00,50.0,30.0,30.10,SE,124,2.0,4.0,46,0.00,,,0.00,,2013-05-14 03:42:00,
2013-05-13 23:53:00,50.0,30.0,30.09,SE,130,2.0,4.0,46,0.00,,,0.00,,2013-05-14 03:53:00,